VK2BLR Weather Reports


time (UTC)temp
C
wind
direction
speed
KPH
gust
KPH
rain 1hr
cm
rain 24hr
cm
rain mn
cm
humidity
%
barometer
mb
20260505085333 13 270 0.0 0.0 0.00 0.03 0.00 69 1019.7
20260505083832 14 270 0.0 0.0 0.00 0.03 0.00 67 1019.6
20260505082334 14 270 0.0 0.0 0.00 0.03 0.00 65 1019.5
20260505080833 15 270 0.0 1.6 0.00 0.03 0.00 63 1019.3
20260505075333 15 270 0.0 1.6 0.00 0.03 0.00 62 1019.2
20260505073833 15 270 0.0 1.6 0.00 0.03 0.00 61 1019.2
20260505072333 16 270 0.0 1.6 0.00 0.03 0.00 60 1019.0
20260505070834 16 270 1.6 3.2 0.00 0.03 0.00 58 1018.8
20260505065333 17 315 1.6 4.8 0.00 0.03 0.00 57 1018.8
20260505063833 17 270 1.6 3.2 0.00 0.03 0.00 52 1018.6
20260505062333 18 270 1.6 1.6 0.00 0.05 0.00 51 1018.6
20260505060832 18 283 1.6 3.2 0.00 0.10 0.00 51 1018.7
20260505055333 18 270 0.0 4.8 0.00 0.10 0.00 48 1018.7
20260505053834 18 270 1.6 4.8 0.00 0.10 0.00 51 1018.4
20260505052333 17 292 1.6 3.2 0.00 0.10 0.00 53 1018.6
20260505050832 18 272 4.8 8.0 0.00 0.10 0.00 51 1018.5
20260505040832 18 278 8.0 11.3 0.00 0.13 0.00 50 1018.2
20260505035334 19 286 4.8 9.7 0.00 0.18 0.00 51 1018.1
20260505033833 20 279 4.8 9.7 0.00 0.20 0.00 50 1018.1
20260505032332 19 270 4.8 9.7 0.00 0.20 0.00 50 1018.2
20260505030833 20 271 4.8 4.8 0.00 0.20 0.00 51 1018.4
20260505025333 19 270 4.8 9.7 0.00 0.23 0.00 52 1018.4
20260505023833 19 283 4.8 9.7 0.00 0.23 0.00 52 1018.4
20260505022332 19 297 3.2 4.8 0.00 0.28 0.00 52 1018.7
20260505020833 20 270 3.2 4.8 0.00 0.30 0.00 52 1018.8
20260505015333 20 270 1.6 4.8 0.00 0.30 0.00 51 1018.9
20260505013833 20 278 3.2 11.3 0.00 0.30 0.00 52 1019.3
20260505012333 20 270 3.2 8.0 0.00 0.30 0.00 52 1019.2
20260505010832 20 292 3.2 4.8 0.00 0.30 0.00 55 1019.1
20260505005334 19 255 3.2 4.8 0.00 0.30 0.00 57 1019.1
20260505003834 18 252 3.2 9.7 0.00 0.30 0.00 59 1019.0
20260505002333 18 285 4.8 9.7 0.00 0.30 0.00 58 1019.0
20260505000832 18 270 3.2 4.8 0.00 0.30 0.00 58 1019.0
20260504235333 18 270 3.2 4.8 0.00 0.30 0.00 60 1018.9
20260504233833 18 278 1.6 4.8 0.00 0.30 0.00 60 1018.7
20260504232332 17 306 3.2 8.0 0.00 0.30 0.00 61 1018.5
20260504230833 17 273 3.2 4.8 0.00 0.30 0.00 59 1018.7
20260504225333 18 282 3.2 4.8 0.00 0.30 0.30 60 1018.5
20260504223833 18 225 0.0 1.6 0.00 0.30 0.30 62 1018.5
20260504222333 17 225 0.0 1.6 0.00 0.30 0.30 69 1018.2
20260504220833 16 225 0.0 1.6 0.00 0.36 0.30 79 1017.8
20260504215333 13 225 0.0 0.0 0.00 0.38 0.30 87 1017.7
20260504213834 10 225 0.0 0.0 0.00 0.38 0.30 92 1017.6
20260504212334 8 225 0.0 1.6 0.00 0.46 0.30 90 1017.5
20260504210833 7 225 0.0 0.0 0.00 0.64 0.30 90 1017.2
20260504205334 7 225 0.0 0.0 0.00 0.79 0.30 89 1017.1
20260504203833 7 225 0.0 0.0 0.00 0.89 0.30 89 1016.9
20260504202333 7 225 0.0 0.0 0.00 0.99 0.30 89 1016.8
20260504200834 8 225 0.0 0.0 0.00 1.09 0.30 89 1016.7
20260504195333 8 225 0.0 0.0 0.00 1.17 0.30 89 1016.5
20260504193833 8 225 0.0 0.0 0.00 1.22 0.30 89 1016.5
20260504192333 8 225 0.0 0.0 0.00 1.22 0.30 89 1016.3
20260504190834 8 225 0.0 0.0 0.00 1.27 0.30 89 1016.1
20260504185334 8 225 0.0 0.0 0.00 1.32 0.30 89 1016.2
20260504183832 8 225 0.0 0.0 0.00 1.37 0.30 89 1016.0
20260504182334 8 225 0.0 0.0 0.00 1.42 0.30 89 1016.0
20260504180833 8 225 0.0 0.0 0.00 1.45 0.30 89 1015.8
20260504175333 8 225 0.0 0.0 0.00 1.47 0.30 89 1015.9
20260504173833 8 225 0.0 0.0 0.00 1.47 0.30 89 1015.9
20260504172332 8 225 0.0 0.0 0.00 1.47 0.30 89 1015.8
20260504170834 8 225 0.0 0.0 0.00 1.47 0.30 89 1015.9
20260504150834 10 225 0.0 0.0 0.00 1.85 0.30 89 1016.6
20260504140833 10 225 0.0 0.0 0.00 2.29 0.30 90 1016.7